Location: Blairvadach
(56.2780°N, 6.9720°W)
Time: 11:32:23
(UTC+00:00)

ISS - Visible Passes

Search period start: 20 February 2019 00:00
Search period end: 02 March 2019 00:00
Orbit: 403 x 411 km, 51.6° (Epoch: 21 February)

Date Brightness Start Highest point End Pass type
(mag) Time Alt. Az. Time Alt. Az. Time Alt. Az.
26 Feb -1.0 06:11:12 10° S 06:12:50 13° SSE 06:14:28 10° ESE visible
28 Feb -1.6 06:03:26 10° SSW 06:05:55 20° SSE 06:08:24 10° ESE visible
01 Mar -1.4 05:13:22 13° S 05:14:34 15° SSE 05:16:34 10° ESE visible
